Location: Beutels
(47.8767°N, 9.8584°E)
Time: 00:49:14
(UTC+00:00)

ASTEX 1 - Pass Details

Date: 19 May 2025
Orbit: 714 x 734 km, 92.7° (Epoch: 23 June)

Event Time Altitude Azimuth Distance (km) Brightness Sun altitude
Rises 23:17:53 0° 6° (N) 3,163 8.2 -22.1°
Reaches altitude 10° 23:20:11 10° 7° (N) 2,239 7.1 -22.1°
Maximum altitude 23:25:10 86° 96° (E) 741 3.3 -22.1°
Enters shadow 23:26:13 56° 180° (S) 869 3.4 -22.1°
